This is the latest recevied weather packets stored in our database for station/object VE1DX. If no packets are shown the sender has not sent any weather packets the latest 10 day(s).
| Time | Temp. | Humidity | Pressure | Rain* | Wind** | Luminosity | Snow |
|---|---|---|---|---|---|---|---|
| 1778159116 | 9.44° C | 94% | 1006.5 hPa | 0.25 mm | - | - | - |
| 1778158816 | 9.44° C | 94% | 1006.7 hPa | 0.51 mm | - | - | - |
| 1778158516 | 9.44° C | 94% | 1007 hPa | 0.51 mm | - | - | - |
| 1778158216 | 9.44° C | 94% | 1007.2 hPa | 0.51 mm | - | - | - |
| 1778157916 | 9.44° C | 94% | 1007.2 hPa | 0.76 mm | - | - | - |
| 1778157616 | 9.44° C | 94% | 1007.3 hPa | 0.76 mm | - | - | - |
| 1778157317 | 9.44° C | 94% | 1007.4 hPa | 1.02 mm | - | - | - |
| 1778157016 | 9.44° C | 94% | 1007.5 hPa | 1.02 mm | - | - | - |
| 1778156716 | 9.44° C | 94% | 1007.5 hPa | 1.02 mm | - | - | - |
| 1778156416 | 9.44° C | 94% | 1007.4 hPa | 1.27 mm | - | - | - |
| 1778156116 | 9.44° C | 94% | 1007.5 hPa | 1.52 mm | - | - | - |
| 1778155816 | 10° C | 94% | 1007.3 hPa | 1.78 mm | - | - | - |
| 1778155516 | 10° C | 94% | 1007.1 hPa | 2.29 mm | - | - | - |
| 1778155216 | 10° C | 94% | 1007.3 hPa | 2.29 mm | - | - | - |
| 1778154916 | 10° C | 94% | 1007.3 hPa | 2.54 mm | - | - | - |
| 1778154616 | 10° C | 94% | 1007.4 hPa | 2.54 mm | - | - | - |
| 1778154316 | 9.44° C | 94% | 1007.4 hPa | 2.29 mm | - | - | - |
| 1778154016 | 9.44° C | 94% | 1007.7 hPa | 2.54 mm | - | - | - |
| 1778153716 | 9.44° C | 94% | 1007.6 hPa | 2.29 mm | - | - | - |
| 1778153416 | 9.44° C | 94% | 1007.6 hPa | 2.29 mm | - | - | - |
| 1778153116 | 9.44° C | 94% | 1007.6 hPa | 2.29 mm | - | - | - |
| 1778152816 | 9.44° C | 94% | 1007.6 hPa | 2.29 mm | - | - | - |
| 1778152516 | 9.44° C | 94% | 1007.8 hPa | 1.78 mm | - | - | - |
| 1778152216 | 9.44° C | 94% | 1007.9 hPa | 1.52 mm | - | - | - |
| 1778151916 | 10° C | 94% | 1008 hPa | 1.27 mm | - | - | - |
* Rain latest hour (hover to see other rain measurements)
** Current wind speed in m/s (hover to see current wind gust speed)